Theta_e
312 312 314 315 314 314 314 312 311 312 312 312 313 312 315 320 320 321 323 320 322 323 325 324 321 320 320 320 324 328 328 331 331 333 332 333 335 338 337 337 336 335 334 334 334
312 313 315 316 316 315 314 313 311 312 313 313 313 313 317 323 325 325 325 323 321 324 325 324 322 321 323 321 322 322 323 330 330 331 333 338 337 338 337 336 336 336 335 335 337
313 314 316 317 317 316 314 313 312 312 313 313 313 314 318 324 325 323 321 319 323 326 324 323 323 323 322 323 322 326 325 330 332 333 338 338 336 338 337 338 338 338 336 341 341
313 315 317 317 317 316 314 313 312 312 313 313 313 315 319 324 321 320 319 319 324 325 325 324 325 329 327 329 332 330 332 334 335 338 338 337 336 333 337 337 338 336 336 341 340
314 316 317 317 317 316 315 313 312 313 314 313 313 315 319 322 323 319 319 322 322 325 325 325 326 328 327 330 331 331 337 339 337 337 335 336 333 333 337 337 332 334 337 340 340
315 317 318 317 316 316 315 313 312 313 314 313 313 316 317 321 322 320 320 321 322 324 325 325 325 329 332 327 329 332 336 339 340 339 337 333 332 332 337 336 334 337 338 340 338
315 317 317 317 316 316 315 313 312 313 313 313 314 316 317 321 323 322 320 322 322 325 325 325 324 324 328 329 331 335 337 333 334 338 337 336 335 331 336 335 338 340 338 341 338
316 317 317 316 316 316 314 313 314 317 316 313 315 317 319 321 323 322 321 323 325 326 325 324 323 325 331 333 331 327 326 330 333 334 336 333 335 334 335 337 333 341 340 339 338
316 317 316 316 316 316 313 316 319 322 318 318 316 317 320 323 323 321 322 323 325 324 323 324 324 329 330 326 325 325 328 333 335 335 336 333 335 334 331 332 337 341 342 339 337
316 316 315 316 316 314 317 319 319 321 319 318 319 320 323 322 323 321 322 322 323 325 326 326 325 319 318 321 325 326 332 334 336 335 335 337 338 335 334 331 335 339 341 339 337
316 316 315 316 316 315 319 318 319 319 318 318 318 319 322 322 324 322 322 323 324 326 323 324 322 324 323 320 323 326 331 336 335 334 334 337 338 340 339 337 335 333 340 339 337
315 315 315 316 316 317 318 317 316 316 316 319 319 320 322 322 323 323 323 325 325 323 323 322 325 324 323 323 331 333 334 335 333 332 333 335 335 334 334 335 333 331 335 339 337
315 315 315 315 316 318 317 317 317 319 316 319 320 321 322 323 323 325 324 326 324 325 325 325 326 324 325 331 333 333 333 334 335 335 334 334 334 334 333 334 336 334 336 339 338
315 315 315 315 315 316 317 317 318 321 315 318 322 322 323 323 323 325 326 327 325 326 325 325 324 325 325 329 328 332 331 333 334 329 333 332 332 332 332 330 332 335 333 338 338
315 315 315 314 314 314 317 317 319 321 325 325 322 322 322 322 324 325 326 327 325 325 324 326 325 326 326 328 329 332 330 331 330 331 332 334 331 327 332 332 330 331 332 336 337
315 315 314 314 314 315 316 317 320 317 328 323 321 320 321 322 323 325 326 327 326 324 324 324 326 325 326 329 330 329 328 326 326 325 330 332 331 332 332 332 331 333 334 336 336
315 315 314 314 314 315 317 319 312 321 321 321 319 320 321 322 323 325 325 325 323 325 325 324 327 326 331 330 328 326 325 329 331 330 331 332 334 330 329 328 332 334 335 336 336
315 315 315 314 314 314 317 313 318 321 324 325 321 320 322 323 323 324 323 323 323 323 322 325 328 327 325 329 329 328 324 326 332 328 329 332 336 334 329 330 332 335 337 335 334
315 315 315 314 316 314 319 312 314 322 325 324 322 321 321 322 323 322 323 322 323 323 323 329 329 330 329 325 326 328 327 323 329 330 334 333 333 330 330 331 328 331 332 332 332
315 314 317 316 314 317 314 313 319 322 322 322 323 320 321 321 323 322 323 324 324 323 325 326 331 332 331 328 326 326 322 325 323 332 336 334 336 336 333 332 325 323 327 329 328
315 317 321 316 315 315 310 312 317 321 321 319 324 326 320 320 320 321 323 324 325 329 328 328 330 331 331 330 328 325 325 321 322 327 332 334 332 331 331 330 327 324 327 328 325
314 317 320 317 315 310 310 315 318 319 320 318 322 325 327 326 320 320 322 323 331 330 331 328 326 330 331 328 328 325 324 321 324 328 329 329 331 330 329 330 331 326 326 326 325
314 315 320 319 314 311 311 314 318 318 318 319 323 324 325 326 323 319 323 330 333 329 330 327 327 328 327 326 326 329 325 322 322 324 332 333 327 331 330 330 331 329 327 326 326
314 313 319 318 315 313 315 315 318 323 323 324 324 324 324 326 324 329 328 332 332 333 328 328 324 326 328 326 325 330 327 325 325 327 327 331 330 333 331 330 330 328 327 326 326
314 317 322 317 315 314 314 315 316 317 322 325 323 325 324 325 326 330 329 331 330 331 329 323 328 327 326 328 329 330 328 326 327 326 330 328 332 331 331 328 332 330 328 326 325
314 324 325 324 325 320 315 316 316 317 319 324 323 323 326 327 326 327 329 328 327 330 329 323 325 330 331 331 330 332 328 327 327 330 334 333 333 329 332 331 330 330 328 326 325
317 321 320 323 324 314 313 316 318 322 323 324 323 323 326 326 329 328 330 327 326 327 327 326 327 326 329 331 329 329 330 328 331 331 332 334 331 329 329 330 330 330 330 328 325
Wind_Speed
15 16 15 18 20 21 22 21 18 15 14 14 15 15 12 11 3 6 7 10 13 11 8 7 8 6 4 4 4 2 4 3 5 3 2 9 5 8 14 21 26 13 19 14 8
15 15 16 18 21 22 22 22 19 15 14 14 14 13 12 9 11 10 8 11 13 10 7 5 3 6 4 3 5 4 4 2 1 6 13 27 19 10 13 22 19 18 13 5 11
14 14 17 19 21 22 22 22 20 15 13 14 13 12 10 3 7 7 9 12 12 10 4 2 3 4 4 5 3 5 3 7 7 24 30 24 33 8 12 8 8 11 7 9 10
15 16 18 20 21 22 22 22 20 15 13 13 12 10 8 4 4 4 11 12 11 9 6 8 7 4 5 5 5 8 10 14 14 18 17 11 14 15 20 7 7 5 6 5 6
13 16 19 21 21 22 22 21 19 14 13 12 11 8 5 4 5 7 14 13 10 9 8 9 15 5 5 9 22 14 11 19 33 36 28 25 10 15 12 21 15 11 2 4 9
13 15 18 21 21 21 22 21 17 14 12 11 9 7 3 2 5 6 14 10 8 8 9 12 11 13 9 8 8 18 22 19 16 19 11 12 6 2 9 20 12 6 5 6 12
13 16 18 20 21 21 22 21 16 13 11 9 8 8 3 3 1 2 11 10 9 7 7 7 9 3 9 14 17 23 15 9 5 6 6 8 9 5 12 14 9 4 5 11 11
13 15 18 20 21 22 22 19 13 11 9 8 6 6 2 4 2 3 8 10 8 4 4 5 8 9 7 25 6 6 4 3 2 5 4 4 3 5 18 9 1 2 9 11 10
13 16 18 20 21 22 20 15 13 9 6 9 3 5 3 1 2 5 7 8 6 4 3 3 6 9 11 8 5 4 4 2 3 4 3 5 3 7 8 8 2 1 8 9 11
12 15 17 19 20 19 16 9 10 2 12 4 3 2 3 3 6 7 11 10 4 4 7 2 4 5 4 3 5 8 5 2 2 4 7 5 2 11 5 4 4 4 11 11 8
11 14 16 18 18 14 15 7 12 3 15 3 7 6 5 11 3 8 11 8 4 5 3 2 6 1 7 10 4 7 6 6 2 3 6 2 4 5 3 7 9 8 13 13 12
10 13 15 16 15 10 12 16 15 11 10 12 6 9 7 6 1 7 9 3 5 3 1 5 1 4 4 6 7 6 11 4 4 3 5 2 3 2 6 6 12 14 18 15 12
10 12 14 16 12 5 6 16 15 11 3 7 4 4 1 2 1 5 8 3 5 2 3 5 4 6 6 5 7 2 7 6 7 5 7 4 3 2 1 5 8 9 13 17 16
10 12 14 16 7 8 3 13 13 10 4 5 3 1 4 0 3 5 8 4 2 4 4 2 2 4 6 3 3 2 7 8 14 3 2 1 3 4 3 5 8 14 12 17 19
10 12 14 13 13 8 8 10 11 5 3 3 2 0 3 4 0 5 8 3 5 5 5 6 5 3 4 1 5 1 10 8 5 6 5 1 2 5 2 6 8 18 18 20 20
10 13 14 14 12 4 8 10 8 5 2 3 1 0 3 1 1 3 5 3 3 4 3 3 2 1 3 6 8 9 9 9 5 3 2 3 4 4 5 7 5 16 20 24 18
12 13 15 14 12 9 7 7 5 3 4 3 2 1 1 1 1 2 4 2 4 4 4 6 3 3 17 10 1 6 6 3 2 3 4 4 1 7 6 8 12 21 21 22 17
13 14 14 13 11 5 6 5 3 2 4 5 2 2 3 2 1 2 4 2 2 5 3 3 4 4 3 6 8 6 6 5 3 3 3 1 4 5 5 11 13 18 21 20 21
13 13 12 8 5 3 1 4 4 3 3 6 5 3 1 1 2 3 1 7 6 5 6 4 4 3 2 3 6 4 2 4 7 3 2 2 6 5 3 1 5 14 18 21 22
12 11 5 1 4 3 4 4 4 4 5 3 1 2 3 2 2 2 2 4 5 8 3 5 1 0 2 4 8 3 6 3 4 1 2 4 5 5 6 8 6 13 23 25 24
9 4 1 3 6 1 3 5 5 8 5 2 2 2 3 4 5 2 1 2 3 3 5 4 4 4 2 2 7 1 1 7 5 4 4 1 6 7 10 12 12 21 26 27 25
4 2 1 10 2 2 2 4 6 5 2 3 2 3 2 3 4 4 5 3 1 6 7 4 5 3 4 3 1 1 3 5 5 4 1 3 6 1 6 13 21 24 27 26 23
2 1 3 8 2 2 4 4 5 4 4 3 3 1 3 1 1 6 6 2 2 6 8 7 2 3 7 6 2 2 2 5 5 3 5 4 6 1 3 10 20 22 27 27 24
2 1 3 6 2 4 1 4 5 6 6 6 4 1 1 2 2 2 4 3 2 3 6 5 3 6 7 6 3 3 4 4 5 4 4 6 5 3 4 7 13 21 26 27 28
3 1 3 1 2 2 2 2 3 5 4 4 3 3 2 3 3 0 1 1 3 4 2 4 3 3 4 3 2 3 4 8 7 4 5 4 7 5 9 13 24 27 24 24 29
3 3 2 2 2 2 1 3 4 4 5 4 2 4 2 1 3 1 2 1 2 2 3 3 2 1 1 4 5 4 2 7 2 3 2 2 4 7 10 16 14 22 25 27 31
5 4 1 1 2 3 4 4 4 1 7 14 6 2 3 5 6 3 3 2 4 1 2 3 5 3 3 4 6 4 4 4 4 4 6 4 7 5 5 15 22 23 26 30 31
Wind_Direction
355 357 4 1 1 360 356 353 349 344 341 346 347 346 357 2 35 103 117 130 110 125 140 194 219 235 240 229 188 133 66 139 132 130 162 47 82 52 58 65 53 70 91 70 92
349 355 360 1 356 357 356 353 348 347 342 346 349 349 1 29 91 89 121 113 120 135 172 220 213 196 213 164 153 106 93 126 147 145 92 66 63 61 72 78 63 76 45 65 96
345 350 356 360 354 353 353 352 347 348 343 346 350 352 5 36 87 51 121 127 136 143 157 355 353 138 98 95 70 46 73 124 50 105 101 88 64 94 107 61 91 35 45 87 96
337 350 353 353 351 349 350 350 345 346 343 344 350 356 12 49 100 37 128 135 141 131 77 28 75 106 90 75 60 92 71 116 131 106 102 96 120 75 92 116 131 94 42 122 91
333 346 346 347 346 345 347 348 344 342 341 342 348 356 39 90 88 97 128 146 146 114 73 39 47 53 71 99 91 90 93 83 113 108 106 119 102 90 107 136 131 162 26 129 71
331 340 342 341 342 344 343 343 340 336 337 337 343 345 8 109 106 100 136 149 132 115 86 57 56 84 95 49 64 115 103 106 112 104 96 98 46 136 129 150 164 186 179 126 81
328 337 337 339 341 341 341 338 337 330 332 333 337 339 242 148 137 134 146 151 137 127 95 61 38 87 103 99 102 97 100 107 66 104 129 16 37 39 140 153 132 201 213 125 95
326 330 334 339 341 341 339 336 336 327 333 333 337 340 202 172 262 211 167 165 151 127 70 55 30 87 93 113 101 88 65 91 346 173 44 98 265 190 151 146 51 104 173 143 134
321 326 336 339 343 345 341 341 340 339 4 335 346 345 115 125 321 212 179 159 148 111 50 51 88 93 116 98 57 345 181 151 177 63 111 54 207 187 179 208 326 224 187 172 133
318 325 335 340 346 352 354 354 344 357 340 355 44 17 67 331 346 180 183 164 148 128 106 124 89 78 45 76 197 190 142 118 173 20 51 45 43 158 180 209 296 226 215 175 163
319 325 335 340 346 359 11 11 10 344 335 292 311 286 305 340 100 179 178 176 125 81 84 29 78 150 236 222 194 122 109 115 72 105 83 20 99 119 212 250 266 238 226 202 170
318 326 335 338 344 2 26 42 17 318 307 311 281 265 310 326 84 162 171 188 94 110 335 25 40 196 107 94 115 105 117 93 70 57 91 156 96 159 182 220 241 246 227 210 189
313 325 334 335 341 353 20 11 355 341 277 299 288 272 297 23 44 154 171 137 116 98 50 115 259 316 131 122 115 104 134 169 139 122 52 108 355 290 178 240 262 226 227 226 210
307 321 332 336 344 336 332 347 347 335 51 286 300 272 207 307 306 170 171 170 79 144 152 222 293 38 98 155 84 120 140 122 126 109 153 23 264 284 256 276 225 213 209 206 216
302 316 325 335 331 327 317 333 334 321 42 313 256 261 201 177 227 179 184 209 153 140 87 263 340 42 95 50 95 64 102 99 95 93 108 251 68 261 119 267 249 236 224 210 213
300 310 318 322 334 321 327 318 321 39 26 358 244 129 96 270 318 135 171 172 128 95 17 245 309 167 99 39 95 153 81 47 49 75 45 243 160 265 194 208 236 224 218 210 206
301 308 311 314 316 306 326 329 40 108 339 353 256 117 108 100 350 77 137 120 129 86 360 347 351 64 105 83 6 94 78 35 336 7 215 200 110 246 235 212 209 202 206 208 208
303 307 307 311 304 285 323 45 65 298 276 315 305 91 140 166 4 65 91 107 45 86 108 107 352 164 173 162 176 179 151 151 237 213 249 231 224 253 264 270 221 211 202 208 206
306 308 311 310 303 205 314 57 217 215 305 331 315 97 294 267 124 82 93 184 194 168 150 140 275 304 25 120 126 208 155 158 104 29 32 260 286 298 38 67 204 186 194 196 194
310 317 317 335 159 155 75 234 251 226 319 8 17 87 162 256 123 93 212 203 182 196 139 206 81 209 187 99 51 134 144 76 40 126 298 287 282 242 198 214 209 191 192 191 195
313 312 271 139 156 116 147 240 282 292 310 328 326 343 212 174 165 204 193 257 188 119 117 138 113 278 47 180 176 108 40 49 106 123 159 284 267 221 208 191 196 203 197 194 198
296 7 329 159 61 53 158 211 312 297 302 285 243 244 194 158 163 212 199 236 93 158 156 184 136 162 201 306 346 110 162 134 117 209 145 153 275 96 264 211 198 204 199 203 206
277 267 177 174 120 318 299 287 265 304 294 313 294 262 51 331 236 185 221 151 237 164 168 186 65 62 356 352 358 211 135 101 102 82 187 141 264 357 287 223 204 207 204 209 207
253 36 134 196 154 137 78 287 291 306 266 265 272 314 17 39 18 244 180 22 111 148 140 114 114 151 188 205 173 185 166 149 123 124 176 228 280 280 233 217 204 209 207 211 208
209 223 149 228 291 202 185 282 289 333 293 310 304 270 165 347 39 79 325 80 64 153 58 101 134 156 211 247 228 235 203 173 194 169 167 254 213 260 214 211 213 212 209 212 207
191 175 163 129 295 159 173 248 225 255 219 290 245 317 292 203 195 326 109 111 202 24 70 11 145 123 324 11 10 268 307 180 151 151 270 129 257 228 238 227 222 212 210 215 213
190 183 200 115 101 116 220 229 258 173 258 239 266 237 243 243 257 243 278 299 76 135 101 79 120 81 261 3 359 347 286 199 192 178 148 170 234 178 198 217 230 219 217 220 221